Погода в Хеммете

Дания     55°51′03″N   8°22′21″E
темп.,
°C
ветер,
м/с
пор.,
м/с
влажн.,
%
обл.,
%
осадки,
мм/ч
давл.,
гПа
погр.,
м
16 апреля, пт
пт1623:00+5ссв486598 0.0 1032166
02:00+3ссв477259 0.0 1031135
05:00+3ссв477593 0.0 1031161
08:00+4св48735 0.0 1031228
11:00+9св46512 0.0 10311065
14:00+10с454694 0.0 10301680
17:00+10ссз665495 0.0 1029865
20:00+8ссв6106018 0.0 1029398
17 апреля, сб
сб1723:00+5ссв477331 0.0 1030137
02:00+5с4873100 0.0 1029173
05:00+4св357927 0.0 1028101
08:00+6с3870100 0.0 1028264
11:00+9св575290 0.0 1028657
14:00+12св464689 0.0 10261029
17:00+11юв4557100 0.0 1026539
20:00+9юв127073 0.0 102671
18 апреля, вс
вс1823:00+8св227194 0.0 102722
02:00+8св1273100 0.0 102621
05:00+8с3473100 0.0 102673
08:00+8св3677100 0.0 1025161
11:00+12всв45605 0.0 1026654
14:00+14в245596 0.0 10251255
17:00+11зюз227097 0.0 1025240
20:00+11юв347380 0.0 1025136
19 апреля, пн
пн1923:00+8вюв348527 0.0 102653
02:00+7в238698 0.0 102663
05:00+8всв238373 0.0 102679
08:00+8в348239 0.0 1025121
11:00+11в236876 0.0 1025366
14:00+14с335497 0.0 10241409
17:00+11с577199 0.0 1023221
20:00+11с477495 0.0 1021145
20 апреля, вт
вт2023:00+9юв347817 0.0 102159
02:00+7вюв33675 0.0 102126
05:00+6юв12685 0.0 102010
08:00+8в11634 0.0 101953
11:00+11ссз22550 0.0 1018560
14:00+12сз43521 0.0 1017997
17:00+11сз56642 0.0 1016338
20:00+9ссз597683 0.0 1015211